Regional Weather Roundup
Issued by NWS Goodland, KS

Home | Current Version | Previous Version | Graphics & Text | Print | Product List | Glossary On
Versions: 1 2 3 4 5 6 7 8 9 10 11 12 13 14 15 16 17 18 19 20 21 22 23 24 25 26 27 28 29 30 31 32 33 34 35 36 37 38 39 40 41 42 43 44 45 46 47 48 49 50
000
ASUS43 KGLD 191808
RWRGLD

GOODLAND FORECAST AREA HOURLY WEATHER ROUNDUP
NATIONAL WEATHER SERVICE GOODLAND KS
1200 PM MDT TUE SEP 19 2017

...OFFICIAL OBSERVATIONS...

CITY           SKY/WX    TMP DP  RH WIND       PRES   REMARKS
GOODLAND KS    CLOUDY    87  29  12 SW16G25   29.64F
HILL CITY KS   SUNNY     91  59  33 S18G26    29.62F
IMPERIAL NEB   CLOUDY    85  43  22 S7        29.61F
MCCOOK NEB     CLOUDY    89  57  33 S15G22    29.58F
AKRON CO       CLOUDY    79  22  12 SW15      29.67F
BURLINGTON CO  CLOUDY    86  29  12 S20       29.68F
LIMON CO       CLOUDY    75  18  11 SW20G29   29.74F
$$

...UNOFFICIAL OBSERVATIONS...

CITY           SKY/WX    TMP DP  RH WIND       PRES   REMARKS
LENORA KS        N/A     88  32  13 MISG        N/A
NORTON KS      SUNNY     90  52  27 S14G21    29.61F
SHARON SPRINGS   N/A     89  38  17 SW13G23     N/A
TRENTON NEB      N/A     90  32  12 W7          N/A
YUMA CO        FAIR      81  12   7 SW10G17   29.64F
$$




USA.gov is the U.S. government's official web portal to all federal, state and local government web resources and services.